{"data":{"norad_id":51634,"epoch":"2026-05-25T02:51:23.476608Z","epoch_age_seconds":74968,"freshness":"FRESH","line1":"1 51634U 22012N   26145.11902172 -.00000620  00000+0 -18127-2 0  9997","line2":"2 51634  87.8850  40.8731 0001963  82.8551 277.2799 13.10372576206329","mean_motion":13.10372576,"eccentricity":0.0001963,"inclination_deg":87.885,"raan_deg":40.8731,"arg_perigee_deg":82.8551,"mean_anomaly_deg":277.2799,"bstar":-0.0018127,"rev_number":20632,"period_min":109.89240971417,"perigee_km":1220.2262310537,"apogee_km":1223.2099341591,"semimajor_km":7599.8550826064,"source":"CELESTRAK","updated_at":"2026-05-25T13:38:22.578483Z"}}